Regional Weather Roundup
Issued by NWS

Home | Current Version | Previous Version | Text Only | Print | Product List | Glossary Off
Versions: 1 2 3 4 5 6 7 8 9 10 11 12 13 14 15 16 17 18 19 20 21 22 23 24 25 26 27 28 29 30 31 32 33 34 35 36 37 38 39 40 41 42 43 44 45 46 47 48 49 50

000
ASUS43 KOAX 050910
RWRNE

WEATHER ROUNDUP FOR NEBRASKA
NATIONAL WEATHER SERVICE OMAHA NE
400 AM CDT SUN JUL 05 2015

NOTES: SATELLITE DATA IS BEING USED TO AUGMENT CLOUD COVER ABOVE
       12000 FEET.
       "FAIR" INDICATES FEW OR NO CLOUDS BELOW 12,000 FEET WITH NO
       SIGNIFICANT WEATHER AND/OR OBSTRUCTIONS TO VISIBILITY.

  * THESE STATIONS DO NOT REPORT WEATHER SUCH AS RAIN...SNOW OR FOG.

NEZ001>004-019>022-054>056-051000-
NEBRASKA PANHANDLE

CITY           SKY/WX    TMP DP  RH WIND       PRES   REMARKS
SCOTTSBLUFF    PTCLDY    65  61  87 CALM      29.86F
ALLIANCE       CLOUDY    71  64  78 CALM      29.89R
CHADRON        PTCLDY    67  61  81 W6        29.81F
KIMBALL          N/A    N/A N/A N/A MISG        N/A
SIDNEY         MOCLDY    65  60  84 W3        29.90F
$$

NEZ057>060-069>072-079>082-051000-
SOUTHWEST NEBRASKA

CITY           SKY/WX    TMP DP  RH WIND       PRES   REMARKS
NORTH PLATTE   CLEAR     72  63  73 SE7       29.86R
IMPERIAL       PTCLDY    72  61  68 SE8       29.86F
LEXINGTON      MOCLDY    74  65  73 S13       29.86F
MCCOOK         PTCLDY    76  65  68 S15       29.85F
OGALLALA       PTCLDY    73  63  71 CALM      29.85S
$$

NEZ005>010-023>029-035>040-094-051000-
NORTH CENTRAL NEBRASKA

CITY           SKY/WX    TMP DP  RH WIND       PRES   REMARKS
VALENTINE      PTCLDY    78  50  37 S22G31    29.78S
AINSWORTH      MOCLDY    80  51  36 SW21G31   29.78F
BROKEN BOW     CLOUDY    74  63  68 S9        29.86F
O`NEILL        LGT RAIN  71  65  79 S8        29.83F
ORD            CLOUDY    72  62  71 SE9       29.84F
THEDFORD       CLOUDY    71  64  79 E9        29.91F
$$

NEZ041-046>049-061>064-073>077-083>087-051000-
SOUTH CENTRAL NEBRASKA

CITY           SKY/WX    TMP DP  RH WIND       PRES   REMARKS
GRAND ISLAND   CLOUDY    71  64  78 S16       29.89S
AURORA         MOCLDY    70  65  83 S13G18    29.89F
HASTINGS       MOCLDY    71  63  75 S10       29.89F
HEBRON         PTCLDY    72  64  75 S8        29.91F
HOLDREGE       MOCLDY    72  63  72 S12       29.88F
KEARNEY *      CLOUDY    72  63  73 S13       29.88S
YORK           PTCLDY    68  64  88 S12       29.91S
$$

NEZ011>018-030>034-042>045-051000-
NORTHEAST NEBRASKA

CITY           SKY/WX    TMP DP  RH WIND       PRES   REMARKS
NORFOLK        MOCLDY    70  64  81 S14       29.87F
ALBION         PTCLDY    68  62  83 SE8       29.88S
BLAIR          MOCLDY    69  61  76 S10       29.92F
COLUMBUS *     PTCLDY    70  61  73 S9G16     29.87S
FREMONT        MOCLDY    70  63  78 SE10      29.91F
TEKAMAH        PTCLDY    65  62  90 S5        29.91F
WAYNE          PTCLDY    68  65  90 S13       29.87F
$$

NEZ050>053-065>068-078-088>093-051000-
SOUTHEAST NEBRASKA

CITY           SKY/WX    TMP DP  RH WIND       PRES   REMARKS
LINCOLN        PTCLDY    69  64  84 S10       29.91F
OMAHA EPPLEY   MOCLDY    70  62  76 S13       29.93S
BEATRICE       PTCLDY    70  64  83 SE12      29.92F
FALLS CITY     MOCLDY    66  63  90 SE5       29.94F
NEBRASKA CITY  MOCLDY    67  62  83 S9        29.94F
PLATTSMOUTH    MOCLDY    67  62  82 SE9       29.93F
$$

NEZ044-045-051>053-067-051000-
OMAHA AREA

CITY           SKY/WX    TMP DP  RH WIND       PRES   REMARKS
OMAHA EPPLEY   MOCLDY    70  62  76 S13       29.93S
BLAIR          MOCLDY    69  61  76 S10       29.92F
FREMONT        MOCLDY    70  63  78 SE10      29.91F
MILLARD        MOCLDY    69  64  84 SE6       29.93S
OFFUTT AFB     MOCLDY    67  63  87 E6        29.92F
PLATTSMOUTH    MOCLDY    67  62  82 SE9       29.93F
WAHOO          FAIR      68  64  89 SE8       29.92S
$$



USA.gov is the U.S. government's official web portal to all federal, state and local government web resources and services.